Temperature
4 3 3 3 3 4 3 3 2 2 3 2 2 2 2 2 2 2 2 2 2 3 3 3 3 4 4 4 4 4 5 5 5 5 5 5 6 6 6 6 6 7 7 7
3 3 3 3 3 3 3 3 2 2 3 3 1 1 1 1 1 1 1 1 2 2 3 3 3 3 3 3 3 4 4 4 4 5 5 5 5 5 6 6 6 6 6 6
4 3 3 3 3 3 3 2 2 2 2 2 1 2 2 1 1 1 1 1 1 2 2 2 2 3 3 3 3 3 3 3 4 4 4 4 4 4 5 5 5 5 5 6
2 2 3 3 3 3 3 3 2 2 1 1 1 1 2 1 0 1 1 1 1 1 1 2 2 2 2 2 2 3 3 3 3 3 4 4 4 4 4 4 4 4 5 5
2 2 2 3 3 2 2 2 1 1 1 -0 -0 0 1 0 1 0 -0 0 0 1 1 1 1 2 2 2 2 2 2 3 3 3 3 3 3 3 4 4 4 4 4 4
2 1 2 2 2 2 1 1 1 -0 -0 1 0 0 1 -0 0 0 -0 -0 -0 0 0 1 1 1 1 2 2 2 2 2 2 2 3 3 3 3 3 3 3 3 4 4
2 2 1 1 2 2 1 1 1 1 0 1 -0 -0 0 -1 -1 -1 -1 -1 -0 -0 -0 0 0 0 1 1 1 1 1 2 2 2 2 2 2 2 2 3 3 3 3 3
2 2 1 1 1 0 0 1 1 2 1 0 -1 -1 -0 -1 -1 -1 -1 -1 -1 -1 -1 -0 -0 -0 0 0 1 1 1 1 1 1 2 2 2 2 2 2 2 2 2 3
1 1 1 0 0 0 0 -1 -1 -1 -2 -2 -1 -2 -1 -1 -2 -2 -2 -2 -1 -1 -1 -1 -1 -0 -0 -0 0 0 1 1 1 1 1 1 1 1 1 1 1 2 2 2
-0 0 -0 -0 0 -1 -1 -2 -2 -1 -0 -0 -1 -1 -1 -1 -1 -2 -3 -3 -2 -2 -1 -1 -1 -1 -1 -1 -0 -0 0 0 0 0 0 0 0 0 1 1 1 1 1 2
-1 -1 -1 -1 -1 -1 -2 -2 -2 -2 -1 -1 -1 0 -1 -1 -2 -2 -3 -2 -2 -2 -2 -1 -1 -1 -1 -1 -1 -1 -1 -0 -0 -0 -0 -0 -0 -0 0 0 1 1 1 1
-2 -2 -2 -2 -2 -2 -2 -3 -3 -1 -2 -3 -2 -1 -1 -3 -3 -3 -3 -2 -2 -2 -2 -2 -2 -2 -2 -2 -2 -1 -1 -1 -1 -1 -1 -1 -1 -1 -0 -0 -0 0 0 0
-2 -2 -1 0 -1 -3 -3 -4 -4 -4 -3 -4 -3 -1 -2 -4 -3 -3 -3 -2 -2 -2 -2 -2 -2 -2 -2 -2 -2 -2 -2 -1 -1 -2 -2 -1 -1 -1 -1 -1 -0 -0 -0 -0
-2 -3 -1 0 -0 -2 -3 -4 -5 -4 -3 -3 -3 -2 -2 -3 -4 -4 -3 -2 -2 -2 -2 -2 -2 -3 -3 -2 -2 -2 -2 -2 -2 -2 -2 -2 -2 -2 -1 -1 -1 -1 -1 -1
-2 -3 -4 -4 -3 -3 -3 -3 -4 -4 -4 -3 -3 -4 -3 -3 -4 -4 -3 -3 -3 -3 -3 -3 -3 -3 -3 -3 -3 -3 -2 -2 -2 -2 -2 -3 -2 -2 -2 -2 -2 -2 -1 -1
-4 -3 -4 -3 -3 -4 -4 -4 -4 -5 -5 -5 -4 -4 -4 -4 -4 -4 -4 -4 -4 -3 -3 -3 -3 -3 -3 -3 -3 -3 -3 -3 -3 -3 -3 -3 -3 -3 -3 -2 -2 -2 -2 -2
-4 -4 -4 -3 -4 -3 -3 -4 -5 -5 -6 -5 -4 -4 -5 -5 -5 -5 -4 -4 -4 -4 -3 -3 -4 -4 -4 -4 -4 -3 -3 -3 -3 -3 -3 -3 -3 -3 -3 -3 -3 -3 -2 -2
-5 -5 -4 -4 -4 -2 -2 -5 -5 -5 -5 -6 -6 -5 -6 -5 -5 -4 -4 -4 -4 -4 -4 -4 -4 -4 -4 -4 -4 -4 -4 -3 -4 -4 -4 -4 -4 -3 -3 -3 -3 -3 -3 -3
-6 -4 -4 -4 -4 -3 -3 -5 -6 -5 -5 -6 -6 -6 -6 -6 -6 -4 -4 -4 -4 -4 -4 -4 -4 -4 -4 -4 -4 -4 -4 -4 -4 -4 -4 -4 -4 -4 -4 -4 -3 -3 -3 -3
-6 -6 -5 -5 -4 -3 -2 -5 -6 -5 -4 -5 -6 -7 -7 -7 -6 -5 -4 -5 -5 -5 -5 -5 -5 -5 -5 -5 -5 -4 -4 -4 -5 -5 -5 -5 -4 -4 -4 -4 -4 -4 -4 -3
-6 -6 -6 -5 -5 -4 -4 -6 -5 -4 -3 -5 -6 -6 -7 -7 -6 -5 -5 -5 -5 -5 -5 -5 -5 -5 -5 -5 -5 -5 -5 -5 -5 -5 -5 -5 -5 -5 -4 -4 -4 -4 -4 -4
-6 -6 -6 -6 -5 -4 -6 -6 -6 -5 -5 -5 -5 -5 -6 -6 -6 -6 -6 -6 -6 -6 -6 -6 -6 -6 -6 -6 -6 -6 -6 -6 -6 -6 -6 -5 -5 -5 -5 -5 -5 -4 -4 -4
-7 -6 -6 -6 -4 -5 -6 -5 -5 -5 -5 -5 -5 -5 -6 -6 -6 -6 -6 -6 -6 -6 -6 -6 -6 -6 -6 -6 -6 -6 -6 -6 -6 -6 -6 -6 -6 -6 -6 -5 -5 -5 -5 -5
-7 -8 -7 -7 -7 -6 -6 -5 -5 -5 -5 -5 -6 -6 -6 -6 -7 -7 -7 -7 -7 -7 -7 -7 -7 -6 -7 -7 -7 -7 -7 -7 -7 -7 -6 -6 -6 -6 -6 -6 -6 -6 -6 -6
-7 -9 -8 -8 -7 -7 -6 -5 -5 -6 -6 -6 -6 -6 -7 -7 -7 -7 -7 -7 -7 -7 -7 -7 -7 -7 -7 -7 -7 -7 -7 -7 -7 -7 -7 -7 -7 -7 -7 -7 -7 -7 -7 -7
-8 -8 -8 -6 -6 -7 -6 -5 -6 -6 -6 -6 -7 -7 -7 -7 -7 -7 -7 -7 -7 -7 -7 -8 -8 -8 -7 -7 -7 -7 -7 -7 -7 -7 -7 -8 -8 -8 -8 -8 -7 -7 -7 -7
Wind_Speed
5 5 2 2 2 2 2 3 5 6 3 2 6 9 10 5 3 3 3 3 4 5 4 3 2 1 2 2 2 1 2 2 1 1 0 1 1 0 1 2 2 2 2 3
5 2 3 2 1 0 1 2 4 5 2 3 5 9 7 5 4 4 4 4 4 5 5 4 3 2 1 1 1 1 1 2 1 0 1 2 1 1 1 2 2 2 2 2
2 2 2 0 1 1 2 4 4 5 6 2 3 6 4 3 2 2 2 2 4 4 5 5 4 3 2 2 1 1 1 1 1 0 0 1 1 1 1 1 0 2 2 2
1 2 1 1 1 0 4 3 3 3 3 4 3 5 6 4 5 4 4 4 4 4 4 4 4 3 3 3 2 2 2 1 1 1 1 2 2 1 1 1 1 1 2 2
2 2 1 1 3 2 4 3 2 2 1 3 1 2 7 2 5 7 6 5 5 4 4 4 4 2 2 2 2 2 2 2 1 1 1 3 2 1 0 0 1 0 1 1
2 1 1 2 2 1 2 2 2 3 3 2 3 3 7 3 4 6 7 6 5 5 4 3 2 2 2 2 2 2 3 3 2 1 1 2 2 1 0 0 1 1 1 0
4 3 2 1 2 3 4 4 4 5 3 5 1 3 8 4 4 4 6 7 5 4 4 4 3 2 2 2 2 3 2 3 2 2 1 1 2 2 2 2 2 2 1 1
2 5 2 2 1 0 1 3 3 3 4 5 3 6 6 3 4 4 5 5 4 4 4 4 3 3 2 2 2 2 2 2 2 2 1 1 1 2 2 2 2 2 2 3
2 4 2 1 1 2 1 1 2 3 1 4 6 7 7 2 5 5 6 5 5 5 5 5 4 3 3 3 3 3 2 2 2 2 2 2 1 1 1 1 1 2 2 2
3 4 3 2 1 2 2 4 4 3 1 5 7 6 5 6 6 6 6 6 6 6 6 5 4 3 3 3 3 3 2 2 3 2 2 1 2 1 1 1 1 1 2 1
2 2 4 2 2 3 2 2 2 2 3 3 5 7 5 5 4 5 6 6 6 6 6 6 5 4 3 3 3 3 3 2 2 2 2 2 1 1 1 1 2 2 2 2
1 2 4 5 2 1 3 4 4 3 4 4 4 8 3 3 4 4 6 7 7 6 5 5 4 3 3 3 3 3 3 2 2 2 2 2 2 1 1 2 2 2 2 2
2 2 3 5 2 1 1 2 3 3 2 4 4 9 3 4 6 7 7 7 7 6 6 5 4 3 4 4 4 3 3 3 2 2 2 2 2 2 2 2 2 2 2 2
3 3 5 7 6 3 4 4 3 4 4 5 9 12 11 9 10 10 8 7 6 6 5 5 4 4 4 4 4 4 3 3 2 2 2 2 2 2 2 2 1 2 2 2
3 3 5 8 7 5 7 8 6 8 8 9 10 11 14 10 10 9 8 7 6 6 6 6 5 5 4 4 4 4 4 3 3 2 2 3 3 2 2 2 1 2 2 2
1 3 3 6 5 6 9 10 8 9 8 10 11 14 10 8 6 7 7 6 7 7 7 6 5 4 4 5 5 5 5 4 3 2 3 3 3 3 3 3 2 2 2 2
3 2 2 5 4 5 8 8 8 6 6 6 10 10 7 8 8 8 8 6 7 7 6 6 5 4 5 5 5 5 5 4 3 2 3 3 3 4 4 3 2 2 2 2
5 3 2 3 4 6 6 1 4 5 6 7 8 8 7 8 9 8 6 5 7 7 6 6 5 5 5 4 4 4 4 4 3 3 3 3 3 4 3 2 2 2 2 2
4 4 2 1 4 9 6 2 2 3 6 4 7 9 7 7 7 6 4 4 5 6 6 5 4 4 4 5 4 4 4 4 4 4 4 4 3 3 3 3 3 2 2 2
2 2 3 2 3 6 5 2 1 1 5 3 3 7 5 4 4 6 6 6 6 6 5 5 4 4 4 5 4 3 4 4 4 5 5 4 3 3 3 3 3 2 2 3
1 1 4 5 6 8 4 1 1 1 5 4 3 5 3 3 5 6 7 7 5 5 5 5 4 4 5 5 4 4 4 5 5 5 5 4 4 3 3 3 2 2 2 2
6 4 5 4 5 8 1 3 4 5 3 4 4 4 4 5 6 6 6 6 6 5 5 5 4 5 5 5 4 5 6 6 5 4 4 4 4 3 3 2 2 1 2 2
6 7 5 8 7 3 4 5 3 2 4 4 4 4 4 5 6 6 5 5 5 5 5 5 4 5 6 5 4 5 7 6 5 4 4 4 4 3 3 2 2 2 1 1
4 2 3 5 7 5 5 5 4 3 5 6 5 5 3 5 5 6 5 5 5 5 5 4 5 5 6 6 5 5 6 5 4 4 4 3 3 3 3 3 2 2 1 1
5 4 3 6 6 5 5 5 6 6 5 5 5 4 4 4 5 5 5 6 5 5 4 4 4 5 6 6 6 6 5 5 4 4 4 3 3 3 2 2 2 2 2 3
3 5 5 7 5 4 6 5 4 5 6 5 5 6 5 4 5 5 5 5 5 4 4 4 5 5 6 6 6 6 5 4 4 4 4 3 2 2 2 2 3 4 4 5
Wind_Direction
16 56 41 286 214 190 186 212 262 268 276 292 258 276 286 280 269 270 285 296 303 306 313 329 333 360 55 65 69 26 17 4 32 30 303 188 201 110 75 58 51 69 84 98
39 25 282 266 206 177 204 247 267 293 309 284 281 281 276 257 239 240 252 278 294 316 330 339 352 5 4 26 62 51 4 1 357 301 237 200 196 196 104 55 58 71 89 105
133 261 299 320 20 343 259 226 251 283 323 333 327 303 279 294 290 305 292 285 302 304 306 315 328 338 347 349 334 338 340 333 330 337 290 102 84 83 42 7 13 43 74 101
347 314 315 328 295 203 270 251 264 281 336 305 30 293 283 302 307 309 309 315 315 317 309 305 312 324 332 327 337 358 0 360 65 89 89 121 131 178 245 253 241 25 42 62
306 336 346 279 285 239 250 299 279 240 189 309 343 235 283 324 302 307 307 305 311 308 299 294 298 293 311 331 343 354 11 21 44 107 118 128 129 165 271 253 138 152 34 34
279 306 249 259 309 243 290 2 42 63 73 301 243 204 280 267 277 308 314 311 311 309 308 305 319 336 337 353 1 6 21 14 14 49 117 149 156 170 154 280 186 207 208 43
335 328 351 16 5 6 37 58 10 354 353 260 249 234 255 261 276 285 297 303 304 307 311 320 337 336 326 338 345 349 3 356 355 16 24 200 184 185 199 216 208 207 207 206
336 301 319 9 90 261 350 124 148 237 259 287 296 246 256 255 296 307 306 305 315 315 312 306 303 305 316 323 328 332 330 327 332 356 339 304 229 202 206 210 209 212 218 216
210 268 332 9 4 132 117 155 165 148 287 286 273 283 296 293 321 329 330 330 319 314 312 307 309 312 313 314 314 303 300 313 318 327 331 325 284 210 231 246 210 221 236 231
172 266 287 311 45 33 130 146 100 123 256 282 288 281 276 302 308 310 314 311 310 316 316 313 300 301 308 306 309 308 299 297 314 326 314 318 338 301 240 248 248 241 259 249
154 214 301 340 204 216 103 119 135 160 189 212 282 276 231 248 276 280 286 293 296 302 303 302 297 302 308 311 313 309 307 319 325 314 318 319 315 317 295 251 248 242 243 238
152 141 270 260 251 166 172 184 165 185 238 208 241 273 257 260 287 285 292 301 302 301 304 305 299 305 310 310 311 301 303 310 311 313 312 304 310 322 313 291 264 259 248 251
142 125 326 332 345 19 263 216 193 176 177 207 227 268 308 331 316 308 300 299 301 304 310 312 304 300 302 307 315 314 313 308 315 323 319 316 311 303 293 294 286 270 256 247
129 174 207 236 254 237 254 248 209 179 214 241 237 262 290 307 309 307 303 296 294 297 302 305 300 298 306 314 316 314 314 309 314 323 320 303 291 286 282 288 289 273 259 241
124 240 247 260 269 255 251 253 226 219 225 233 256 265 277 292 293 292 293 297 300 305 305 301 301 306 314 320 322 320 317 320 320 321 312 302 299 297 290 285 269 255 251 255
154 239 275 280 264 254 265 261 240 236 242 247 269 278 279 298 303 302 302 299 301 301 299 302 307 311 311 312 313 312 311 312 313 302 294 300 308 302 289 274 250 238 247 257
188 193 268 282 310 319 280 248 220 230 229 217 243 265 310 317 313 305 299 298 297 298 302 303 301 296 297 299 301 301 304 313 313 299 301 304 303 296 287 276 256 247 247 252
170 170 218 293 354 264 255 201 201 232 253 230 258 285 296 292 302 296 288 292 298 301 304 306 310 312 310 307 308 309 313 317 315 308 306 307 303 293 289 272 249 243 246 242
171 168 197 239 274 279 292 255 182 222 279 245 253 280 302 316 319 312 313 309 299 303 309 308 311 316 322 322 316 318 323 324 325 318 304 298 296 295 287 266 251 237 236 245
76 124 172 195 239 257 270 256 220 152 288 294 258 280 301 338 323 305 324 327 324 327 330 331 335 340 340 333 333 332 325 327 318 311 306 301 296 286 279 259 251 239 237 246
116 167 208 223 240 263 267 253 123 175 274 316 286 278 269 258 264 295 318 325 327 332 336 341 344 343 334 335 342 337 328 315 307 309 311 316 313 298 286 273 252 236 244 252
187 191 209 200 227 260 214 127 186 238 293 294 287 281 270 278 297 311 321 325 331 336 340 343 341 335 335 341 345 335 324 316 318 318 320 321 319 313 315 312 294 256 230 245
204 201 204 206 225 267 189 208 244 272 282 283 280 288 282 287 294 306 312 315 321 326 331 335 335 333 336 339 339 324 318 323 326 325 323 322 323 323 328 324 314 303 266 242
247 215 220 255 264 267 249 264 285 277 272 284 287 289 278 280 289 299 305 312 317 321 324 329 333 332 330 330 326 314 317 324 326 323 321 323 326 328 335 327 322 312 293 270
231 186 228 259 280 303 272 255 270 287 293 298 306 298 285 281 290 293 300 303 307 314 318 320 319 317 316 322 322 321 323 323 322 320 320 323 323 321 327 324 319 299 282 263
200 194 212 250 248 245 274 283 278 280 286 291 298 303 300 284 284 293 296 298 303 310 316 318 318 316 316 320 320 323 325 324 321 320 321 319 317 314 316 316 321 321 312 318
Height
1512 1516 1521 1521 1521 1521 1522 1524 1525 1521 1516 1517 1514 1511 1506 1504 1503 1502 1501 1500 1498 1497 1497 1496 1496 1495 1495 1496 1495 1496 1497 1496 1497 1498 1498 1499 1501 1502 1504 1506 1508 1510 1512 1513
1517 1521 1521 1520 1520 1521 1522 1523 1523 1519 1516 1516 1514 1510 1503 1501 1500 1500 1499 1498 1497 1495 1494 1493 1493 1493 1494 1494 1494 1494 1495 1494 1495 1495 1496 1497 1498 1500 1501 1503 1505 1507 1508 1511
1519 1522 1520 1520 1520 1520 1521 1522 1522 1521 1518 1515 1516 1509 1503 1499 1499 1498 1498 1497 1496 1495 1493 1492 1491 1491 1491 1491 1492 1492 1492 1493 1493 1493 1494 1495 1496 1498 1499 1501 1502 1504 1506 1507
1522 1522 1521 1520 1520 1521 1521 1519 1519 1520 1522 1523 1521 1519 1504 1501 1499 1497 1496 1496 1494 1493 1492 1491 1490 1489 1489 1489 1490 1490 1490 1490 1490 1491 1491 1492 1493 1494 1495 1497 1499 1501 1503 1504
1522 1522 1522 1521 1520 1521 1521 1519 1519 1520 1523 1526 1524 1524 1507 1503 1500 1497 1495 1494 1493 1492 1491 1490 1489 1489 1489 1489 1488 1488 1488 1488 1489 1489 1489 1490 1491 1492 1493 1494 1496 1498 1500 1501
1523 1523 1523 1522 1521 1520 1520 1520 1520 1524 1526 1524 1522 1524 1511 1505 1501 1497 1494 1492 1491 1490 1489 1488 1488 1487 1487 1487 1487 1487 1486 1487 1487 1487 1487 1488 1489 1490 1491 1491 1493 1494 1496 1498
1525 1523 1523 1522 1521 1521 1522 1524 1527 1527 1531 1524 1523 1521 1510 1502 1499 1497 1495 1492 1490 1489 1488 1486 1485 1485 1485 1485 1485 1485 1485 1485 1485 1485 1485 1485 1486 1486 1487 1488 1489 1491 1492 1494
1528 1526 1524 1524 1524 1525 1526 1526 1530 1531 1531 1526 1523 1519 1505 1499 1497 1495 1494 1492 1489 1488 1487 1486 1485 1484 1483 1483 1484 1483 1483 1483 1482 1482 1482 1482 1483 1484 1485 1485 1486 1488 1489 1491
1531 1527 1525 1524 1524 1525 1526 1531 1531 1536 1539 1538 1524 1516 1504 1497 1495 1493 1492 1490 1488 1487 1486 1485 1483 1482 1482 1482 1481 1481 1481 1480 1480 1480 1480 1480 1480 1481 1482 1483 1484 1485 1486 1488
1532 1532 1527 1526 1525 1526 1528 1530 1535 1535 1534 1531 1522 1518 1506 1498 1495 1493 1492 1490 1488 1486 1484 1483 1483 1482 1481 1480 1480 1479 1478 1478 1478 1477 1477 1477 1477 1478 1479 1480 1481 1482 1483 1485
1532 1534 1530 1528 1528 1528 1530 1531 1532 1535 1533 1532 1526 1511 1499 1496 1493 1493 1491 1489 1487 1485 1483 1482 1481 1480 1480 1479 1478 1477 1476 1475 1475 1475 1475 1474 1474 1475 1476 1477 1477 1479 1480 1481
1532 1535 1534 1529 1527 1527 1528 1530 1533 1531 1532 1536 1532 1513 1494 1494 1492 1491 1490 1488 1486 1485 1483 1481 1480 1478 1477 1476 1475 1475 1474 1473 1473 1473 1472 1472 1472 1472 1473 1474 1474 1475 1476 1478
1533 1535 1532 1524 1529 1530 1530 1530 1532 1532 1532 1534 1529 1509 1494 1493 1491 1490 1489 1486 1484 1483 1481 1479 1478 1477 1475 1474 1473 1471 1471 1470 1470 1470 1470 1470 1470 1469 1470 1470 1471 1472 1473 1474
1530 1535 1533 1526 1522 1526 1529 1529 1530 1530 1529 1528 1520 1504 1495 1493 1492 1489 1487 1484 1482 1481 1479 1477 1475 1474 1473 1472 1471 1470 1469 1468 1468 1467 1467 1467 1467 1467 1466 1467 1468 1469 1470 1471
1529 1533 1533 1528 1525 1526 1525 1523 1525 1525 1521 1517 1508 1506 1494 1493 1491 1488 1485 1483 1480 1478 1476 1474 1473 1472 1471 1470 1470 1468 1467 1466 1465 1464 1464 1464 1464 1464 1464 1464 1464 1465 1467 1468
1529 1531 1530 1526 1522 1523 1520 1516 1518 1518 1517 1514 1508 1502 1491 1491 1489 1486 1483 1481 1478 1476 1474 1473 1472 1471 1470 1469 1468 1466 1465 1464 1463 1462 1461 1461 1461 1461 1461 1461 1461 1462 1463 1464
1529 1531 1530 1525 1523 1519 1515 1510 1511 1511 1509 1508 1505 1496 1491 1490 1487 1484 1481 1479 1477 1475 1473 1472 1471 1469 1468 1467 1466 1464 1463 1461 1460 1459 1458 1458 1458 1458 1458 1457 1457 1458 1459 1460
1527 1529 1530 1527 1525 1518 1504 1504 1503 1504 1502 1502 1498 1493 1491 1489 1485 1482 1481 1479 1476 1474 1472 1470 1469 1468 1467 1465 1464 1462 1461 1459 1457 1456 1456 1455 1455 1454 1454 1454 1453 1454 1456 1457
1523 1526 1528 1529 1528 1514 1503 1502 1503 1503 1499 1495 1494 1490 1489 1486 1483 1480 1479 1477 1476 1474 1472 1470 1468 1467 1465 1463 1462 1460 1458 1456 1455 1453 1453 1452 1452 1451 1451 1450 1451 1451 1452 1453
1524 1526 1529 1529 1525 1514 1500 1501 1499 1501 1497 1491 1490 1489 1488 1486 1485 1480 1477 1475 1474 1472 1471 1469 1467 1465 1463 1462 1460 1458 1456 1454 1452 1451 1450 1450 1449 1448 1447 1447 1448 1448 1449 1450
1528 1528 1529 1526 1523 1509 1500 1499 1499 1502 1494 1490 1488 1487 1486 1485 1484 1480 1476 1474 1473 1471 1469 1468 1466 1464 1462 1460 1458 1456 1454 1452 1451 1449 1448 1447 1446 1445 1444 1444 1445 1445 1446 1446
1522 1524 1524 1523 1521 1508 1498 1498 1499 1495 1490 1488 1486 1485 1484 1482 1480 1478 1475 1473 1471 1469 1468 1466 1464 1462 1460 1458 1456 1454 1452 1451 1449 1447 1445 1444 1443 1443 1442 1441 1441 1442 1442 1443
1514 1512 1510 1510 1503 1496 1494 1492 1492 1491 1489 1487 1485 1483 1482 1480 1478 1476 1474 1472 1470 1469 1467 1465 1463 1461 1459 1457 1455 1452 1451 1449 1447 1445 1443 1442 1441 1440 1439 1439 1439 1439 1439 1439
1508 1506 1507 1504 1495 1493 1491 1490 1489 1488 1486 1485 1483 1481 1479 1477 1476 1474 1472 1471 1469 1467 1465 1463 1461 1459 1457 1456 1453 1451 1449 1447 1445 1443 1441 1440 1438 1437 1437 1436 1436 1436 1436 1436
1502 1504 1503 1499 1493 1490 1487 1487 1486 1485 1483 1482 1480 1479 1477 1475 1473 1472 1470 1469 1467 1465 1464 1462 1460 1458 1456 1454 1452 1450 1447 1445 1443 1441 1439 1438 1436 1435 1434 1434 1434 1433 1433 1433
1497 1498 1499 1493 1489 1489 1485 1484 1483 1482 1480 1479 1477 1475 1474 1473 1471 1470 1468 1467 1465 1463 1462 1460 1458 1456 1454 1452 1450 1448 1446 1443 1441 1439 1437 1436 1435 1434 1433 1432 1432 1431 1431 1431